Time[GMT],current_speed[cm/s](2m),current_direction[angular_degrees](2m),temperature[C](2m),current_u[cm/s](2m),current_v[cm/s](2m),signal_strength[db](2m),tilt[degrees](2m)
2019-11-26 21:00,29.31,85.1,9.66,29.20,2.52,-26.49,7.72
2019-11-26 23:00,14.20,112.9,9.67,13.09,-5.52,-23.66,7.59
2019-11-27 01:00,14.98,155.2,9.65,6.29,-13.60,-28.77,5.20
2019-11-27 03:00,19.67,163.6,9.62,5.55,-18.87,-27.88,5.06
2019-11-27 05:00,24.99,131.8,9.61,18.65,-16.64,-28.69,5.81
2019-11-27 07:00,26.09,107.5,9.59,24.88,-7.86,-29.12,4.86
2019-11-27 09:00,23.23,93.1,9.28,23.19,-1.24,-28.28,4.36
2019-11-27 11:00,14.73,156.8,9.32,5.79,-13.54,-29.71,2.60
2019-11-27 13:00,18.17,207.6,9.42,-8.42,-16.10,-27.72,3.12
2019-11-27 15:00,23.32,201.7,9.60,-8.63,-21.67,-30.59,4.33
2019-11-27 17:00,13.38,154.1,9.40,5.84,-12.04,-27.47,3.94
2019-11-27 19:00,12.59,118.7,9.22,11.04,-6.05,-25.43,4.64
2019-11-27 21:00,11.54,88.5,9.26,11.53,0.31,-27.60,5.81
2019-11-28 00:00,8.82,194.7,9.34,-2.24,-8.53,-28.48,7.91
2019-11-28 01:00,13.38,202.1,9.35,-5.04,-12.40,-27.50,5.66
2019-11-28 02:00,9.06,207.3,9.35,-4.15,-8.05,-32.00,5.18
2019-11-28 03:00,14.06,186.4,9.34,-1.57,-13.98,-27.39,5.53
2019-11-28 04:00,17.68,135.9,9.39,12.31,-12.69,-29.59,6.17
2019-11-28 05:00,21.88,138.2,9.50,14.59,-16.30,-27.78,7.51
2019-11-28 06:00,33.15,128.2,9.62,26.05,-20.50,-20.15,10.45
2019-11-28 07:00,35.47,133.4,9.65,25.76,-24.38,-29.26,10.39
2019-11-28 08:00,33.44,137.1,9.63,22.76,-24.50,-17.01,13.37
2019-11-28 09:00,35.47,129.9,9.63,27.23,-22.73,-27.09,11.13
2019-11-28 10:00,35.23,140.7,9.62,22.31,-27.26,-18.08,15.89
2019-11-28 11:00,32.46,152.9,9.59,14.78,-28.90,-12.43,13.84
2019-11-28 12:00,42.71,176.6,9.52,2.57,-42.63,-13.16,15.76
2019-11-28 13:00,41.18,193.4,9.43,-9.56,-40.05,-18.52,15.58
2019-11-28 14:00,37.75,198.4,9.27,-11.94,-35.81,-17.24,13.71
2019-11-28 15:00,43.61,210.1,9.11,-21.87,-37.73,-13.39,16.56
2019-11-28 16:00,44.92,202.3,9.05,-17.02,-41.58,-7.89,17.78
2019-11-28 17:00,41.88,203.9,9.08,-16.95,-38.29,-9.80,17.24
2019-11-28 18:00,39.26,200.6,9.15,-13.83,-36.74,-11.11,17.43
2019-11-28 19:00,34.03,177.6,9.16,1.40,-34.00,-1.92,16.75
2019-11-28 20:00,24.41,182.6,9.20,-1.12,-24.38,-19.47,15.66
2019-11-28 21:00,19.75,126.9,9.19,15.79,-11.86,-21.12,12.96
2019-11-28 22:00,23.47,117.1,9.18,20.88,-10.70,-2.94,16.17
2019-11-28 23:00,15.68,150.1,9.19,7.83,-13.59,-7.63,17.13
2019-11-29 00:00,20.11,207.8,9.19,-9.38,-17.79,-5.12,14.87
2019-11-29 01:00,21.50,199.6,9.21,-7.22,-20.26,-16.71,16.69
2019-11-29 02:00,28.80,215.3,9.21,-16.63,-23.52,-18.24,14.11
2019-11-29 03:00,30.46,194.9,9.23,-7.81,-29.44,-13.33,16.44
2019-11-29 04:00,35.26,193.2,9.21,-8.05,-34.33,-8.44,13.78
2019-11-29 05:00,31.77,192.5,9.20,-6.87,-31.02,-16.94,12.51
2019-11-29 06:00,22.18,184.7,9.18,-1.80,-22.11,-19.16,13.49
2019-11-29 07:00,23.86,175.6,9.18,1.81,-23.80,-11.10,15.23
2019-11-29 08:00,18.83,158.6,9.14,6.87,-17.54,-19.88,13.53
2019-11-29 09:00,23.30,164.2,9.11,6.36,-22.41,-13.86,12.85
2019-11-29 10:00,12.18,150.3,9.12,6.03,-10.58,-20.28,12.35
2019-11-29 11:00,14.08,176.3,9.10,0.91,-14.05,-20.59,12.04
2019-11-29 12:00,22.38,191.7,9.11,-4.53,-21.92,-14.92,12.63
2019-11-29 13:00,14.22,204.3,9.11,-5.84,-12.97,-14.57,12.93
2019-11-29 14:00,22.85,187.2,9.09,-2.86,-22.68,-15.90,13.78
2019-11-29 15:00,32.77,211.2,8.99,-17.00,-28.01,-19.02,13.19
2019-11-29 16:00,36.91,210.9,9.03,-18.97,-31.66,-20.92,11.65
2019-11-29 17:00,28.25,210.0,9.04,-14.11,-24.48,-18.57,10.78
2019-11-29 18:00,28.84,177.4,9.06,1.32,-28.81,-15.41,11.93
2019-11-29 19:00,15.28,154.7,9.06,6.52,-13.82,-16.97,12.41
2019-11-29 20:00,23.82,146.4,9.03,13.18,-19.84,-15.45,12.66
2019-11-29 21:00,23.41,164.0,8.98,6.46,-22.50,-19.02,16.18
2019-11-29 22:00,30.86,136.4,8.91,21.29,-22.34,-4.98,17.61
2019-11-29 23:00,31.36,158.1,8.87,11.71,-29.10,-21.90,17.02
2019-11-30 00:00,34.29,174.5,8.96,3.29,-34.14,-13.11,18.82
2019-11-30 01:00,29.26,183.1,8.99,-1.56,-29.21,-10.02,15.85
2019-11-30 02:00,23.40,178.0,8.98,0.84,-23.38,-15.35,14.57
2019-11-30 03:00,35.43,187.0,9.01,-4.32,-35.16,-17.94,15.94
2019-11-30 04:00,35.12,181.6,8.99,-0.97,-35.11,-9.27,14.97
2019-11-30 05:00,23.77,181.3,8.98,-0.56,-23.76,-21.06,14.62
2019-11-30 06:00,31.72,175.7,8.98,2.40,-31.63,-14.50,12.85
2019-11-30 07:00,21.23,192.8,8.73,-4.69,-20.71,-14.69,11.74
2019-11-30 08:00,12.98,180.7,8.72,-0.16,-12.98,-17.66,12.21
2019-11-30 09:00,17.53,172.6,8.72,2.26,-17.39,-20.09,11.91
2019-11-30 10:00,15.63,157.0,8.72,6.11,-14.38,-17.53,11.45
2019-11-30 11:00,24.08,134.4,8.96,17.22,-16.84,-11.51,13.01
2019-11-30 12:00,20.81,162.5,8.95,6.27,-19.85,-5.75,12.15
2019-11-30 13:00,27.38,164.5,8.99,7.30,-26.39,-8.81,13.25
2019-11-30 14:00,22.23,179.9,9.01,0.02,-22.23,-23.02,14.09
2019-11-30 15:00,36.50,160.0,9.06,12.47,-34.30,-18.57,12.90
2019-11-30 16:00,33.32,171.5,9.10,4.95,-32.95,-14.46,12.25
2019-11-30 17:00,36.74,175.1,9.14,3.13,-36.60,-20.03,12.36
2019-11-30 18:00,32.89,165.9,9.13,8.01,-31.90,-16.16,12.83
2019-11-30 19:00,27.48,176.5,8.89,1.66,-27.43,-17.84,11.71
2019-11-30 20:00,21.10,156.8,8.77,8.31,-19.40,-15.20,11.48
2019-11-30 21:00,15.55,165.7,8.78,3.85,-15.07,-21.30,10.89
2019-11-30 22:00,23.23,133.9,8.89,16.73,-16.11,-16.20,13.52
2019-11-30 23:00,14.74,138.0,9.05,9.87,-10.95,-15.71,12.61
2019-12-01 00:00,22.41,140.7,9.05,14.20,-17.34,-17.60,12.60
2019-12-01 01:00,23.92,160.9,9.04,7.84,-22.60,-22.91,11.98
2019-12-01 02:00,22.79,167.7,9.08,4.85,-22.27,-27.33,10.89
2019-12-01 03:00,26.28,164.2,9.09,7.17,-25.29,-27.24,10.76
2019-12-01 04:00,23.79,186.6,9.00,-2.75,-23.63,-21.77,9.04
2019-12-01 05:00,21.83,210.2,8.92,-10.99,-18.86,-23.46,8.93
2019-12-01 06:00,20.25,251.6,8.55,-19.21,-6.40,-27.45,7.59
2019-12-01 07:00,12.08,225.7,8.47,-8.64,-8.44,-28.13,6.87
2019-12-01 08:00,7.51,215.3,8.49,-4.34,-6.13,-28.35,4.88
2019-12-01 09:00,8.08,116.3,8.49,7.24,-3.58,-29.40,4.80
2019-12-01 10:00,10.57,100.7,8.47,10.38,-1.96,-28.74,5.91
2019-12-01 11:00,12.58,75.2,8.63,12.17,3.22,-29.64,5.89
2019-12-01 12:00,13.47,72.0,8.72,12.81,4.17,-30.00,4.83
2019-12-01 13:00,11.56,85.3,8.64,11.52,0.95,-29.28,4.29
2019-12-01 14:00,9.01,124.4,8.62,7.43,-5.09,-27.90,3.65
2019-12-01 15:00,12.12,152.0,8.95,5.69,-10.70,-29.24,4.53
2019-12-01 16:00,13.95,175.7,8.93,1.04,-13.91,-26.56,6.02
2019-12-01 17:00,17.48,192.1,8.82,-3.66,-17.09,-25.55,7.01
2019-12-01 18:00,19.53,228.5,8.43,-14.64,-12.94,-27.76,5.01
2019-12-01 19:00,16.94,220.8,8.31,-11.06,-12.83,-29.23,4.80
2019-12-01 20:00,12.01,218.9,8.33,-7.55,-9.35,-30.04,3.38
2019-12-01 21:00,8.45,198.6,8.17,-2.69,-8.01,-29.19,3.97
2019-12-01 22:00,6.30,223.7,8.19,-4.35,-4.55,-28.98,4.88
2019-12-01 23:00,6.69,293.0,8.23,-6.16,2.62,-24.90,6.63
2019-12-02 00:00,6.40,348.9,8.30,-1.24,6.28,-25.60,7.94
2019-12-02 01:00,9.24,299.6,8.46,-8.03,4.56,-7.89,8.42
2019-12-02 02:00,9.22,301.2,8.62,-7.89,4.78,-7.22,12.92
2019-12-02 03:00,22.42,272.0,8.38,-22.41,0.77,-3.15,15.03
2019-12-02 04:00,24.65,255.4,8.36,-23.85,-6.23,-12.02,14.86
2019-12-02 05:00,27.29,272.7,8.34,-27.26,1.30,-8.80,14.23
2019-12-02 06:00,32.33,270.1,8.35,-32.33,0.05,-15.21,16.09
2019-12-02 07:00,37.28,252.6,8.34,-35.57,-11.15,-15.91,17.27
2019-12-02 08:00,27.02,256.6,8.38,-26.29,-6.25,-20.02,17.06
2019-12-02 09:00,28.33,262.6,8.38,-28.10,-3.63,-1.96,18.84
2019-12-02 10:00,17.76,248.1,8.39,-16.47,-6.63,-5.10,15.62
2019-12-02 11:00,16.52,249.7,8.40,-15.50,-5.72,-1.48,18.07
2019-12-02 12:00,15.90,254.6,8.44,-15.32,-4.22,-4.49,17.55
2019-12-02 13:00,25.91,253.7,8.48,-24.87,-7.27,-5.28,19.90
2019-12-02 14:00,20.07,254.9,8.52,-19.38,-5.22,-4.35,17.79
2019-12-02 15:00,20.07,244.8,8.51,-18.15,-8.56,-10.29,18.99
2019-12-02 16:00,22.05,249.2,8.48,-20.61,-7.83,-5.35,17.73
2019-12-02 17:00,41.13,237.8,8.45,-34.79,-21.93,-3.37,18.61
2019-12-02 18:00,48.63,233.9,8.42,-39.32,-28.62,-7.78,19.73
2019-12-02 19:00,39.67,229.1,8.39,-29.99,-25.97,-7.09,19.89
2019-12-02 20:00,51.05,231.2,8.49,-39.79,-31.98,-2.39,22.04
2019-12-02 21:00,32.09,204.3,8.44,-13.23,-29.24,-3.40,19.53
2019-12-02 22:00,38.97,194.8,8.29,-9.94,-37.68,-0.67,19.86
2019-12-02 23:00,40.52,171.4,8.31,6.08,-40.07,-2.19,18.40
2019-12-03 00:00,23.30,182.0,8.25,-0.81,-23.29,-3.67,18.45
2019-12-03 01:00,27.67,177.8,8.20,1.06,-27.65,-2.72,19.39
2019-12-03 02:00,24.61,174.7,8.26,2.27,-24.50,-5.52,20.19
2019-12-03 03:00,31.03,172.4,8.28,4.09,-30.76,-5.83,19.77
2019-12-03 04:00,32.36,182.4,8.27,-1.34,-32.33,-3.12,20.45
2019-12-03 05:00,27.66,188.2,8.40,-3.95,-27.38,-6.77,18.76
2019-12-03 06:00,27.80,178.0,8.55,0.98,-27.78,-8.05,18.67
2019-12-03 07:00,43.79,179.0,8.67,0.73,-43.79,-11.23,26.07
2019-12-03 08:00,31.68,206.9,8.74,-14.36,-28.24,-5.91,18.47
2019-12-03 09:00,39.70,191.1,8.70,-7.63,-38.96,-1.96,20.19
2019-12-03 10:00,39.43,198.7,8.69,-12.67,-37.34,-1.05,17.65
2019-12-03 11:00,24.76,185.4,8.67,-2.32,-24.65,-2.80,18.03
2019-12-03 12:00,31.55,188.7,8.66,-4.78,-31.18,-4.10,17.88
2019-12-03 13:00,29.98,155.5,8.68,12.45,-27.27,-7.62,18.32
2019-12-03 14:00,25.45,173.4,8.65,2.91,-25.28,-4.30,15.66
2019-12-03 15:00,32.61,176.4,8.58,2.03,-32.54,-10.23,15.19
2019-12-03 16:00,74.43,212.7,8.47,-40.23,-62.62,-11.96,19.46
2019-12-03 17:00,66.76,214.7,8.48,-37.97,-54.90,-13.24,16.48
2019-12-03 18:00,65.69,210.7,8.51,-33.51,-56.50,-16.72,15.53
2019-12-03 19:00,54.43,209.8,8.50,-27.03,-47.25,-11.02,15.65
2019-12-03 20:00,65.34,201.9,8.06,-24.42,-60.61,-10.38,18.06
2019-12-03 21:00,53.21,204.8,8.23,-22.30,-48.31,-10.83,16.68
2019-12-03 22:00,51.64,199.1,8.09,-16.87,-48.81,-13.95,18.80
2019-12-03 23:00,52.83,189.0,7.87,-8.30,-52.18,-15.87,16.83
2019-12-04 00:00,48.40,187.7,7.93,-6.47,-47.96,-14.01,15.30
2019-12-04 01:00,41.98,182.9,7.86,-2.12,-41.92,-19.57,14.85
2019-12-04 02:00,39.36,194.9,7.78,-10.11,-38.04,-15.16,13.36
2019-12-04 03:00,36.00,195.2,7.68,-9.44,-34.74,-15.49,12.59
2019-12-04 04:00,39.42,203.5,7.71,-15.71,-36.16,-17.80,13.38
2019-12-04 05:00,37.83,209.1,7.73,-18.38,-33.07,-19.15,12.07
2019-12-04 06:00,42.60,213.3,7.73,-23.40,-35.60,-18.54,11.35
2019-12-04 07:00,46.86,214.3,7.52,-26.43,-38.69,-19.28,10.79
2019-12-04 08:00,35.58,214.3,7.56,-20.04,-29.40,-20.52,10.09
2019-12-04 09:00,35.71,205.6,7.53,-15.44,-32.20,-21.74,9.15
2019-12-04 10:00,26.66,204.7,7.54,-11.16,-24.21,-19.83,8.86
2019-12-04 11:00,20.27,184.6,7.60,-1.62,-20.21,-21.48,7.04
2019-12-04 12:00,15.90,181.7,7.63,-0.46,-15.90,-24.40,5.38
2019-12-04 13:00,12.61,183.7,7.62,-0.81,-12.58,-25.22,5.63
2019-12-04 14:00,8.97,151.4,7.64,4.30,-7.87,-23.71,7.12
2019-12-04 15:00,9.44,135.4,7.67,6.63,-6.72,-24.54,6.21
2019-12-04 16:00,11.47,146.6,7.71,6.31,-9.58,-24.33,6.35
2019-12-04 17:00,11.90,173.8,7.76,1.29,-11.83,-27.63,6.77
2019-12-04 18:00,11.37,186.1,7.79,-1.22,-11.31,-25.93,6.71
2019-12-04 19:00,11.63,178.2,7.81,0.36,-11.62,-25.49,6.15
2019-12-04 20:00,13.71,187.9,7.84,-1.90,-13.58,-25.52,5.09
2019-12-04 21:00,19.24,195.8,7.81,-5.23,-18.51,-28.81,4.92
2019-12-04 22:00,15.30,188.6,7.83,-2.29,-15.13,-27.14,4.75
2019-12-04 23:00,13.54,170.1,7.86,2.33,-13.34,-30.38,4.56
2019-12-05 00:00,11.39,144.7,7.84,6.59,-9.29,-28.47,5.26
2019-12-05 01:00,11.21,128.2,7.83,8.81,-6.94,-29.10,5.77
2019-12-05 02:00,13.64,122.5,7.83,11.50,-7.33,-24.65,7.42
2019-12-05 03:00,12.78,121.8,7.83,10.86,-6.74,-26.75,6.71
2019-12-05 04:00,5.72,109.4,7.85,5.40,-1.90,-26.20,6.70
2019-12-05 05:00,9.87,106.9,7.84,9.45,-2.87,-25.32,7.33
2019-12-05 06:00,6.30,180.1,7.86,-0.01,-6.30,-29.40,6.68
2019-12-05 07:00,7.93,201.2,7.83,-2.87,-7.39,-24.99,6.12
2019-12-05 08:00,9.51,171.5,7.84,1.40,-9.41,-25.34,6.78
2019-12-05 09:00,7.70,157.4,7.86,2.96,-7.11,-24.50,8.21
2019-12-05 10:00,11.82,180.9,7.86,-0.18,-11.82,-29.13,6.21
2019-12-05 11:00,10.04,171.8,7.86,1.44,-9.94,-23.39,6.98
2019-12-05 12:00,17.70,149.6,7.99,8.95,-15.27,-24.82,9.23
2019-12-05 13:00,16.78,126.0,8.05,13.58,-9.87,-22.85,8.98
2019-12-05 14:00,19.49,113.2,8.08,17.92,-7.67,-21.26,9.48
2019-12-05 15:00,17.07,103.7,8.11,16.59,-4.04,-18.70,10.93
2019-12-05 16:00,11.98,110.4,8.13,11.23,-4.17,-14.99,9.30
2019-12-05 17:00,10.84,125.9,8.10,8.78,-6.36,-25.30,10.08
2019-12-05 18:00,11.15,167.3,8.08,2.45,-10.88,-25.89,10.65
2019-12-05 19:00,8.64,168.6,8.10,1.71,-8.47,-12.99,8.91
2019-12-05 20:00,13.98,158.0,8.10,5.23,-12.97,-22.28,8.65
2019-12-05 21:00,15.62,162.8,8.12,4.62,-14.93,-19.52,10.10
2019-12-05 22:00,12.36,142.0,8.13,7.60,-9.74,-12.37,13.15
2019-12-05 23:00,20.91,152.1,8.14,9.79,-18.47,-12.12,12.85
2019-12-06 00:00,20.77,136.9,8.03,14.19,-15.17,-10.17,12.19
2019-12-06 01:00,24.75,123.5,8.00,20.64,-13.67,-4.63,11.38
2019-12-06 02:00,20.62,109.9,8.02,19.39,-7.01,-18.12,12.03
2019-12-06 03:00,22.51,125.2,8.00,18.39,-12.97,-8.12,13.10
2019-12-06 04:00,21.52,106.5,8.00,20.63,-6.13,-13.91,11.20
2019-12-06 05:00,19.69,104.2,7.96,19.09,-4.83,-15.36,12.04
2019-12-06 06:00,11.05,96.6,7.93,10.97,-1.27,-11.61,12.64
2019-12-06 07:00,10.42,152.5,7.89,4.81,-9.24,-8.30,10.78
2019-12-06 08:00,14.39,157.8,7.88,5.43,-13.32,-23.43,11.65
2019-12-06 09:00,19.03,139.7,7.82,12.31,-14.51,-21.07,11.74
2019-12-06 10:00,18.57,145.7,7.77,10.47,-15.34,-15.97,10.78
2019-12-06 11:00,17.23,148.3,7.71,9.06,-14.65,-17.91,9.94
2019-12-06 12:00,19.87,123.3,7.78,16.61,-10.90,-25.12,8.49
2019-12-06 13:00,18.57,116.8,7.72,16.57,-8.38,-22.23,7.59
2019-12-06 14:00,20.53,100.1,7.74,20.21,-3.61,-21.97,9.49
2019-12-06 15:00,19.39,80.3,7.76,19.11,3.25,-22.64,8.93
2019-12-06 16:00,16.21,87.4,7.78,16.19,0.74,-27.60,8.51
2019-12-06 17:00,17.61,75.4,7.80,17.04,4.45,-28.38,9.73
2019-12-06 18:00,15.76,69.1,7.85,14.71,5.63,-19.11,6.98
2019-12-06 19:00,8.74,74.8,7.87,8.43,2.30,-23.75,8.13
2019-12-06 20:00,2.18,56.7,7.86,1.83,1.20,-28.16,4.51
2019-12-06 21:00,1.85,62.2,7.86,1.64,0.86,-27.47,3.75
2019-12-06 22:00,2.79,263.0,7.84,-2.77,-0.34,-29.16,3.70
2019-12-06 23:00,4.33,133.8,7.86,3.12,-3.00,-29.80,3.20
2019-12-07 00:00,6.15,68.3,7.87,5.71,2.27,-29.29,2.17
2019-12-07 01:00,9.00,93.5,7.85,8.98,-0.55,-30.50,2.41
2019-12-07 02:00,9.52,93.5,7.84,9.50,-0.59,-29.99,5.27
2019-12-07 03:00,15.44,98.0,7.80,15.29,-2.14,-28.22,9.62
2019-12-07 04:00,12.48,104.6,7.79,12.07,-3.15,-23.99,9.04
2019-12-07 05:00,14.75,149.5,7.77,7.49,-12.71,-14.32,11.70
2019-12-07 06:00,15.72,137.4,7.76,10.64,-11.57,-9.41,13.59
2019-12-07 07:00,16.55,152.5,7.76,7.65,-14.68,-12.85,11.47
2019-12-07 08:00,13.79,183.0,7.76,-0.71,-13.77,-19.23,11.78
2019-12-07 09:00,19.71,177.6,7.79,0.83,-19.69,-10.24,11.79
2019-12-07 10:00,20.93,180.3,7.84,-0.10,-20.93,-11.12,13.25
2019-12-07 11:00,18.30,195.1,7.87,-4.76,-17.67,-17.31,13.13
2019-12-07 12:00,17.83,162.1,7.89,5.48,-16.97,-16.32,11.72
2019-12-07 13:00,18.10,133.3,7.96,13.16,-12.42,-7.89,10.43
2019-12-07 14:00,15.76,138.9,7.98,10.36,-11.88,-22.93,10.00
2019-12-07 15:00,12.21,117.5,8.05,10.83,-5.63,-29.16,8.58
2019-12-07 16:00,13.23,112.5,8.03,12.22,-5.06,-19.64,7.96
2019-12-07 17:00,14.77,113.0,7.97,13.60,-5.77,-25.84,6.59
2019-12-07 18:00,18.31,116.3,7.86,16.42,-8.11,-26.87,6.92
2019-12-07 19:00,18.70,111.0,7.93,17.46,-6.70,-28.92,7.86
2019-12-07 20:00,13.58,115.0,7.91,12.31,-5.75,-27.64,7.62
2019-12-07 21:00,12.36,147.3,7.90,6.67,-10.41,-17.37,9.81
2019-12-07 22:00,12.05,144.9,7.93,6.93,-9.85,-25.70,10.71
2019-12-07 23:00,23.25,159.3,7.87,8.22,-21.75,-28.80,9.38
2019-12-08 00:00,23.29,157.8,7.83,8.81,-21.56,-23.90,12.30
2019-12-08 01:00,28.54,145.9,7.80,15.99,-23.64,-24.71,11.04
2019-12-08 02:00,27.00,149.9,7.79,13.53,-23.37,-27.31,11.06
2019-12-08 03:00,25.49,147.1,7.80,13.84,-21.41,-26.03,9.93
2019-12-08 04:00,23.87,148.5,7.79,12.48,-20.35,-23.38,9.36
2019-12-08 05:00,24.15,138.3,7.81,16.06,-18.04,-27.15,8.75
2019-12-08 06:00,15.84,138.1,7.77,10.58,-11.78,-21.87,8.75
2019-12-08 07:00,12.42,137.6,7.83,8.37,-9.17,-23.54,8.67
2019-12-08 08:00,6.72,219.1,7.86,-4.23,-5.22,-29.16,6.45
2019-12-08 09:00,12.08,176.2,7.88,0.80,-12.06,-26.34,8.55
2019-12-08 10:00,14.62,189.4,7.90,-2.39,-14.42,-30.32,6.61
2019-12-08 11:00,15.26,209.9,7.88,-7.60,-13.23,-30.73,6.21
2019-12-08 12:00,9.69,227.2,7.88,-7.11,-6.59,-30.84,5.12
2019-12-08 13:00,4.10,177.2,7.87,0.20,-4.10,-30.73,4.14
2019-12-08 14:00,7.97,190.6,7.86,-1.47,-7.83,-31.29,3.70
2019-12-08 15:00,11.02,117.0,7.87,9.82,-5.01,-30.86,3.94
2019-12-08 16:00,18.40,128.3,7.87,14.44,-11.40,-31.00,5.59
2019-12-08 17:00,14.28,111.5,7.87,13.28,-5.24,-28.18,5.84
2019-12-08 18:00,19.62,115.9,7.84,17.64,-8.57,-27.69,7.19
2019-12-08 19:00,17.16,123.6,7.81,14.29,-9.49,-26.45,4.66
2019-12-08 20:00,14.18,138.3,7.80,9.44,-10.58,-24.75,9.50
2019-12-08 21:00,8.43,91.7,7.80,8.43,-0.25,-14.22,9.71
2019-12-08 22:00,1.86,180.5,7.79,-0.02,-1.86,-23.11,10.33
2019-12-08 23:00,5.57,218.8,7.79,-3.49,-4.35,-20.29,8.15
2019-12-09 00:00,5.07,187.5,7.78,-0.66,-5.02,-25.94,9.12
2019-12-09 01:00,5.41,167.7,7.78,1.16,-5.29,-22.76,8.20
2019-12-09 02:00,8.34,127.6,7.77,6.61,-5.10,-24.05,10.56
2019-12-09 03:00,10.85,93.1,7.77,10.83,-0.58,-27.01,9.25
2019-12-09 04:00,11.15,87.1,7.68,11.14,0.57,-17.87,11.13
2019-12-09 05:00,15.67,90.4,7.68,15.67,-0.10,-19.55,11.28
2019-12-09 06:00,16.60,102.8,7.63,16.18,-3.68,-18.34,13.14
2019-12-09 07:00,9.16,48.7,7.66,6.88,6.05,-13.31,12.67
2019-12-09 08:00,5.44,101.9,7.68,5.33,-1.12,-12.58,10.91
2019-12-09 09:00,3.82,236.9,7.70,-3.20,-2.08,-12.64,8.61
2019-12-09 10:00,6.57,257.0,7.72,-6.40,-1.48,-27.57,10.41
2019-12-09 11:00,7.05,228.8,7.73,-5.31,-4.64,-26.92,5.90
2019-12-09 12:00,16.14,224.6,7.74,-11.33,-11.49,-31.44,5.77
2019-12-09 13:00,15.52,205.7,7.75,-6.73,-13.98,-27.66,6.49
2019-12-09 14:00,9.95,207.2,7.75,-4.55,-8.85,-31.11,5.35
2019-12-09 15:00,7.34,181.4,7.76,-0.18,-7.33,-25.93,5.73
2019-12-09 16:00,5.77,190.8,7.77,-1.08,-5.67,-23.08,6.62
2019-12-09 17:00,8.23,95.6,7.80,8.20,-0.80,-24.72,7.17
2019-12-09 18:00,6.82,123.9,7.83,5.66,-3.81,-22.92,8.06
2019-12-09 19:00,3.66,314.9,7.84,-2.59,2.58,-9.79,11.36
2019-12-09 20:00,10.48,327.0,7.84,-5.71,8.79,-16.31,10.25
2019-12-09 21:00,12.91,329.3,7.83,-6.58,11.10,-11.85,13.15
2019-12-09 22:00,18.67,313.3,7.80,-13.58,12.81,-22.82,11.71
2019-12-09 23:00,10.53,307.2,7.78,-8.39,6.37,-21.17,10.76
2019-12-10 00:00,8.75,255.1,7.77,-8.46,-2.26,-30.35,9.35
2019-12-10 01:00,9.43,279.2,7.77,-9.31,1.51,-25.56,8.01
2019-12-10 02:00,3.42,211.5,7.78,-1.79,-2.92,-26.37,8.05
2019-12-10 03:00,0.90,331.2,7.80,-0.44,0.79,-20.90,9.36
2019-12-10 04:00,3.81,147.4,7.83,2.05,-3.21,-18.20,9.77
2019-12-10 05:00,11.90,111.3,7.87,11.09,-4.32,-11.68,10.32
2019-12-10 06:00,17.47,104.3,7.93,16.93,-4.32,-21.41,10.76
2019-12-10 07:00,13.83,117.2,7.96,12.31,-6.31,-21.34,9.22
2019-12-10 08:00,15.85,130.4,7.92,12.07,-10.27,-24.29,9.04
2019-12-10 09:00,14.79,186.7,7.90,-1.74,-14.69,-28.44,7.23
2019-12-10 10:00,21.58,210.6,7.92,-10.97,-18.58,-28.43,5.56
2019-12-10 11:00,24.29,218.0,7.93,-14.96,-19.14,-30.43,6.53
2019-12-10 12:00,25.91,219.7,7.94,-16.54,-19.94,-28.86,6.05
2019-12-10 13:00,30.15,220.4,7.95,-19.54,-22.96,-29.94,5.87
2019-12-10 14:00,25.65,223.1,7.98,-17.51,-18.74,-31.97,5.08
2019-12-10 15:00,22.06,223.1,8.03,-15.07,-16.11,-32.16,4.79
2019-12-10 16:00,12.81,189.7,8.04,-2.15,-12.63,-29.02,4.85
2019-12-10 17:00,6.89,185.5,8.05,-0.66,-6.86,-30.65,4.44
2019-12-10 18:00,6.26,168.9,8.04,1.21,-6.15,-27.64,6.24
2019-12-10 19:00,3.62,37.3,8.05,2.19,2.88,-28.61,5.01
2019-12-10 20:00,3.42,266.6,8.05,-3.42,-0.20,-23.00,7.17
2019-12-10 21:00,9.46,318.4,8.05,-6.28,7.08,-26.13,6.69
2019-12-10 22:00,7.45,297.6,8.06,-6.60,3.45,-28.18,5.25
2019-12-10 23:00,7.42,278.0,8.05,-7.34,1.04,-28.34,5.33
2019-12-11 00:00,5.56,210.8,8.06,-2.85,-4.77,-29.94,5.73
2019-12-11 01:00,16.99,163.9,8.06,4.72,-16.32,-15.16,11.90
2019-12-11 02:00,18.71,171.9,8.04,2.64,-18.53,-24.60,10.09
2019-12-11 03:00,26.42,152.9,8.01,12.04,-23.52,-20.84,9.77
2019-12-11 04:00,29.86,158.1,8.00,11.16,-27.70,-25.13,10.69
2019-12-11 05:00,34.28,161.8,8.00,10.73,-32.56,-28.52,8.94
2019-12-11 06:00,31.14,167.7,7.95,6.61,-30.43,-31.00,7.88
2019-12-11 07:00,28.93,172.0,7.92,4.02,-28.65,-16.72,12.47
2019-12-11 08:00,29.80,172.7,7.90,3.78,-29.56,-19.23,12.65
2019-12-11 09:00,31.20,175.0,7.86,2.71,-31.08,-18.10,12.65
2019-12-11 10:00,29.84,213.9,7.81,-16.64,-24.77,-15.25,10.71
2019-12-11 11:00,32.98,213.6,7.76,-18.26,-27.47,-22.48,11.36
2019-12-11 12:00,33.77,221.9,7.71,-22.56,-25.13,-23.10,7.76
2019-12-11 13:00,32.98,235.1,7.64,-27.06,-18.85,-32.08,5.72
2019-12-11 14:00,28.69,230.4,7.64,-22.12,-18.27,-29.64,4.12
2019-12-11 15:00,21.40,233.6,7.62,-17.22,-12.70,-30.77,4.45
2019-12-11 16:00,8.96,199.9,7.62,-3.05,-8.43,-23.31,6.12
2019-12-11 17:00,6.94,154.5,7.69,2.98,-6.27,-30.32,5.58
2019-12-11 18:00,6.40,134.2,7.69,4.59,-4.45,-30.94,3.99
2019-12-11 19:00,12.12,125.1,7.64,9.92,-6.97,-32.63,3.88
2019-12-11 20:00,14.26,106.4,7.64,13.67,-4.04,-31.56,3.66
2019-12-11 21:00,10.54,117.4,7.63,9.35,-4.86,-30.99,3.19
2019-12-11 22:00,6.78,130.9,7.63,5.12,-4.44,-27.80,6.46
2019-12-11 23:00,11.03,174.9,7.65,0.97,-10.99,-25.67,7.34
2019-12-12 00:00,11.43,183.2,7.60,-0.64,-11.41,-24.03,8.99
2019-12-12 01:00,16.76,190.6,7.59,-3.08,-16.47,-18.11,9.84
2019-12-12 02:00,21.64,189.0,7.66,-3.39,-21.37,-28.39,7.96
2019-12-12 03:00,18.95,177.9,7.65,0.69,-18.94,-21.46,8.75
2019-12-12 04:00,26.87,150.9,7.64,13.07,-23.47,-23.90,11.15
2019-12-12 05:00,24.36,145.5,7.64,13.81,-20.07,-16.80,14.21
2019-12-12 06:00,29.79,127.5,7.57,23.63,-18.13,-13.62,12.78
2019-12-12 07:00,19.51,142.5,7.50,11.88,-15.47,-19.54,12.20
2019-12-12 08:00,21.57,139.9,7.55,13.88,-16.51,-14.23,12.68
2019-12-12 09:00,16.80,139.0,7.54,11.01,-12.68,-13.31,13.71
2019-12-12 10:00,21.63,172.5,7.54,2.81,-21.45,-22.09,11.98
2019-12-12 11:00,14.15,186.9,7.55,-1.71,-14.05,-17.60,10.34
2019-12-12 12:00,12.38,205.3,7.57,-5.29,-11.19,-23.59,8.62
2019-12-12 13:00,18.17,233.9,7.54,-14.68,-10.70,-25.79,8.04
2019-12-12 14:00,17.69,215.8,7.57,-10.34,-14.36,-25.02,8.64
2019-12-12 15:00,17.25,191.7,7.58,-3.50,-16.89,-25.06,7.22
2019-12-12 16:00,7.06,166.1,7.64,1.69,-6.86,-27.55,5.72
2019-12-12 17:00,11.95,112.4,7.65,11.05,-4.56,-29.40,5.63
2019-12-12 18:00,23.16,100.4,7.58,22.78,-4.17,-31.57,6.29
2019-12-12 19:00,19.87,89.2,7.61,19.87,0.28,-31.68,5.82
2019-12-12 20:00,20.10,84.8,7.60,20.02,1.81,-29.58,6.94
2019-12-12 21:00,18.86,91.6,7.59,18.85,-0.53,-30.35,6.07
2019-12-12 22:00,14.07,99.9,7.58,13.86,-2.41,-31.18,4.59
2019-12-12 23:00,8.28,143.2,7.60,4.96,-6.63,-31.45,3.36
2019-12-13 00:00,10.17,203.5,7.60,-4.05,-9.33,-32.23,2.14
2019-12-13 01:00,15.12,196.2,7.63,-4.22,-14.51,-31.74,2.04
2019-12-13 02:00,17.94,192.5,7.63,-3.89,-17.51,-32.68,2.19
2019-12-13 03:00,18.68,187.0,7.63,-2.27,-18.54,-32.47,2.19
2019-12-13 04:00,17.22,182.0,7.58,-0.60,-17.21,-32.09,1.70
2019-12-13 05:00,14.73,158.8,7.60,5.33,-13.73,-31.85,3.06
2019-12-13 06:00,13.94,138.7,7.58,9.21,-10.47,-28.94,4.55
2019-12-13 07:00,16.83,116.8,7.56,15.03,-7.59,-31.11,4.89
2019-12-13 08:00,17.45,90.7,7.58,17.45,-0.20,-25.10,6.25
2019-12-13 09:00,15.54,77.3,7.57,15.16,3.41,-28.55,6.68
2019-12-13 10:00,12.75,55.7,7.55,10.53,7.19,-28.69,8.99
2019-12-13 11:00,6.84,60.4,7.54,5.95,3.38,-23.78,7.95
2019-12-13 12:00,5.02,291.8,7.52,-4.66,1.86,-22.15,8.76
2019-12-13 13:00,9.68,306.6,7.50,-7.78,5.77,-20.38,9.06
2019-12-13 14:00,7.19,258.3,7.54,-7.04,-1.45,-26.03,7.59
2019-12-13 15:00,9.71,190.4,7.47,-1.75,-9.56,-21.04,7.74
2019-12-13 16:00,5.60,126.2,7.45,4.52,-3.30,-25.08,7.52
2019-12-13 17:00,15.01,129.8,7.41,11.53,-9.61,-27.27,5.76
2019-12-13 18:00,16.42,102.9,7.43,16.01,-3.66,-25.88,6.39
2019-12-13 19:00,17.16,104.1,7.51,16.65,-4.17,-28.33,7.53
2019-12-13 20:00,18.11,105.7,7.51,17.43,-4.92,-28.15,6.11
2019-12-13 21:00,9.69,91.9,7.68,9.69,-0.31,-29.22,6.32
2019-12-13 22:00,10.72,94.4,7.72,10.69,-0.82,-30.33,6.48
2019-12-13 23:00,4.17,189.2,7.72,-0.67,-4.12,-27.62,7.22
2019-12-14 00:00,9.29,226.0,7.72,-6.68,-6.46,-30.26,7.26
2019-12-14 01:00,15.28,242.6,7.73,-13.57,-7.02,-27.54,6.46
2019-12-14 02:00,16.18,242.4,7.69,-14.35,-7.49,-30.91,6.43
2019-12-14 03:00,18.12,238.3,7.66,-15.41,-9.53,-27.70,7.77